User: anonymous   Login
Location: Unspecified
(0.0000°N, 0.0000°E)
Time: 23:54:21
(UTC+02:00)
Language:

Cosmos 773 Rocket - Orbit

View from above orbital plane
View from above orbital plane
View from above satellite
View from above satellite

Ground track
Ground track

The orbit data is extracted from the following two-line orbital elements,

1 08344U 75094B   16126.40924289  .00000047  00000-0  23775-4 0  9997
2 08344  74.0559 156.9954 0021459 163.8017 196.3828 14.39052079127026
Epoch (UTC): 05 May 2016 09:49:18
Eccentricity: 0.0021459
inclination: 74.0559°
perigee height: 746 km
apogee height: 777 km
right ascension of ascending node: 156.9954°
argument of perigee: 163.8017°
revolutions per day: 14.39052079
mean anomaly at epoch: 196.3828°
orbit number at epoch: 12702

The dashed part of the orbit path shows where the satellite is in the earth's shadow,  

DLR